EW5753 Weather Reports


time (UTC)temp
F
wind
direction
speed
knots
gust
knots
rain 1hr
in
rain 24hr
in
rain mn
in
humidity
%
barometer
mb
20260509134529 73 305 5.2 7.8 0.00 0.06 0.00 84 1010.1
20260509133032 72 297 6.1 10.4 0.00 0.06 0.00 87 1009.9
20260509131535 71 339 6.1 9.6 0.00 0.06 0.00 91 1009.8
20260509130032 70 268 1.7 5.2 0.00 0.06 0.00 93 1009.3
20260509124530 69 0 0.0 1.7 0.00 0.06 0.00 93 1009.4
20260509123034 69 0 0.9 3.5 0.00 0.06 0.00 93 1009.4
20260509121534 68 204 1.7 3.5 0.00 0.06 0.00 93 1009.4
20260509120037 69 208 0.9 1.7 0.00 0.06 0.00 93 1009.6
20260509114533 69 253 1.7 6.1 0.00 0.06 0.00 93 1009.7
20260509113029 69 266 0.9 3.5 0.00 0.06 0.00 93 1009.5
20260509111531 69 278 2.6 7.8 0.00 0.06 0.00 93 1009.3
20260509110035 69 298 2.6 10.4 0.00 0.06 0.00 94 1009.4
20260509104534 69 295 7.0 12.2 0.00 0.06 0.00 94 1009.2
20260509103036 69 297 3.5 7.0 0.00 0.06 0.00 93 1008.5
20260509101544 69 182 5.2 14.8 0.00 0.06 0.00 93 1007.4
20260509100028 69 204 6.1 11.3 0.00 0.06 0.00 93 1007.0
20260509094531 69 206 6.1 16.5 0.00 0.06 0.00 93 1006.7
20260509093031 68 171 7.0 14.8 0.00 0.06 0.00 93 1007.0
20260509091534 68 185 7.8 14.8 0.00 0.06 0.00 93 1006.8
20260509090034 68 189 7.0 13.9 0.00 0.06 0.00 93 1007.4
20260509084531 68 179 4.3 9.6 0.00 0.06 0.00 93 1008.0
20260509083030 68 193 3.5 10.4 0.00 0.06 0.00 92 1008.7
20260509081534 69 198 2.6 7.8 0.00 0.06 0.00 92 1009.3
20260509080035 69 223 3.5 7.8 0.00 0.06 0.00 92 1009.9
20260509074532 69 239 3.5 7.0 0.00 0.06 0.00 92 1010.7
20260509073049 69 259 1.7 5.2 0.00 0.06 0.00 92 1010.7
20260509071535 69 265 2.6 5.2 0.00 0.06 0.00 92 1010.6
20260509070032 69 200 1.7 3.5 0.00 0.06 0.00 91 1010.3
20260509064534 69 293 0.0 3.5 0.00 0.06 0.00 91 1010.7
20260509063032 69 0 0.0 2.6 0.00 0.06 0.00 91 1010.6
20260509061531 69 360 0.9 2.6 0.00 0.06 0.00 90 1010.7
20260509060044 69 0 0.0 0.0 0.00 0.06 0.00 90 1010.3
20260509054530 69 0 0.0 1.7 0.00 0.06 0.00 90 1009.9
20260509053035 70 175 0.9 2.6 0.00 0.06 0.00 90 1010.1
20260509051533 70 175 2.6 6.1 0.00 0.06 0.00 89 1009.9
20260509050034 70 180 2.6 4.3 0.00 0.06 0.00 88 1009.9
20260509044535 71 0 0.0 0.0 0.00 0.06 0.06 87 1010.4
20260509043035 71 0 0.0 4.3 0.00 0.06 0.06 87 1010.3
20260509041530 72 123 0.9 2.6 0.00 0.06 0.06 87 1010.1
20260509040030 72 162 2.6 4.3 0.00 0.06 0.06 87 1010.0
20260509034546 72 170 2.6 5.2 0.00 0.06 0.06 87 1009.9
20260509033033 72 141 1.7 4.3 0.00 0.06 0.06 86 1009.8
20260509031533 72 148 1.7 6.1 0.00 0.06 0.06 86 1009.4
20260509030033 72 141 2.6 6.1 0.00 0.06 0.06 86 1009.1
20260509024536 72 159 1.7 3.5 0.00 0.06 0.06 85 1009.1
20260509023035 72 155 0.0 2.6 0.00 0.06 0.06 85 1009.0
20260509021536 72 155 0.0 2.6 0.00 0.06 0.06 85 1009.0
20260509020039 72 0 0.9 3.5 0.00 0.06 0.06 84 1008.7
20260509014532 72 141 0.9 3.5 0.00 0.06 0.06 84 1008.6
20260509013038 72 159 1.7 3.5 0.00 0.06 0.06 83 1008.5
20260509011544 73 0 0.0 3.5 0.00 0.06 0.06 83 1008.5
20260509010037 73 158 0.9 3.5 0.00 0.06 0.06 82 1008.2
20260509004540 73 165 2.6 7.0 0.00 0.06 0.06 81 1007.8
20260509003032 74 166 1.7 3.5 0.00 0.06 0.06 80 1007.8
20260509001530 74 104 0.9 5.2 0.00 0.06 0.06 80 1007.8
20260509000034 74 159 2.6 6.1 0.00 0.06 0.06 80 1007.9
20260508234533 74 148 4.3 9.6 0.00 0.06 0.06 80 1007.9
20260508233031 74 164 6.1 9.6 0.00 0.06 0.06 79 1008.0
20260508231530 74 167 5.2 9.6 0.00 0.06 0.06 79 1008.1
20260508230033 74 159 4.3 12.2 0.00 0.06 0.06 78 1007.9
20260508224530 74 162 6.1 12.2 0.00 0.06 0.06 78 1008.1
20260508223041 75 148 6.1 11.3 0.00 0.06 0.06 77 1008.2
20260508221532 74 129 5.2 10.4 0.00 0.06 0.06 77 1008.3
20260508220034 73 148 3.5 5.2 0.00 0.06 0.06 78 1008.6
20260508214538 72 60 1.7 3.5 0.02 0.06 0.06 80 1008.9
20260508213036 71 175 6.1 13.9 0.06 0.06 0.06 82 1008.7
20260508211535 69 162 8.7 18.2 0.06 0.06 0.06 85 1008.4
20260508210031 69 155 8.7 13.9 0.06 0.06 0.06 85 1008.1
20260508204538 70 103 2.6 5.2 0.03 0.03 0.03 79 1009.9
20260508203030 70 181 5.2 7.8 0.00 0.00 0.00 76 1010.2
20260508201532 71 208 3.5 7.8 0.00 0.00 0.00 74 1010.7
20260508200032 72 185 5.2 11.3 0.00 0.00 0.00 71 1010.8
20260508194532 71 183 4.3 9.6 0.00 0.00 0.00 72 1010.6
20260508193036 70 165 5.2 8.7 0.00 0.00 0.00 71 1010.4
20260508191533 70 173 4.3 8.7 0.00 0.00 0.00 71 1010.8
20260508190031 70 164 6.1 11.3 0.00 0.00 0.00 71 1010.9
20260508184533 70 191 4.3 9.6 0.00 0.00 0.00 72 1011.2
20260508183030 71 181 6.1 11.3 0.00 0.00 0.00 70 1011.6
20260508181530 71 164 5.2 11.3 0.00 0.00 0.00 69 1011.7
20260508180030 71 157 4.3 8.7 0.00 0.00 0.00 68 1011.6
20260508174536 70 152 4.3 7.8 0.00 0.00 0.00 69 1011.7
20260508173034 70 145 4.3 9.6 0.00 0.00 0.00 70 1012.1
20260508171540 71 146 7.0 10.4 0.00 0.00 0.00 68 1012.2
20260508170032 71 177 6.1 11.3 0.00 0.00 0.00 68 1012.4
20260508164530 71 147 6.1 8.7 0.00 0.00 0.00 68 1012.5
20260508163040 69 120 4.3 9.6 0.00 0.00 0.00 71 1012.8
20260508161531 69 148 5.2 7.8 0.00 0.00 0.00 71 1013.2
20260508160054 68 149 1.7 7.0 0.00 0.00 0.00 74 1013.3
20260508154533 67 175 2.6 6.1 0.00 0.00 0.00 74 1013.6
20260508153033 66 161 3.5 7.0 0.00 0.00 0.00 74 1013.8
20260508151533 66 100 2.6 6.1 0.00 0.00 0.00 75 1013.9
20260508150035 66 140 3.5 7.8 0.00 0.00 0.00 74 1013.8
20260508144534 66 56 2.6 6.1 0.00 0.00 0.00 74 1013.9
20260508143042 66 99 1.7 5.2 0.00 0.00 0.00 74 1013.9
20260508141537 66 87 2.6 7.8 0.00 0.00 0.00 74 1013.7
20260508140030 65 105 2.6 7.0 0.00 0.00 0.00 77 1014.0